Location: Newark
(42.5998°N, 13.2232°E)
Time: 04:00:31
(UTC+00:00)

ITUPSAT 1 - Visible Passes

Search period start: 02 April 2020 00:00
Search period end: 12 April 2020 00:00
Orbit: 701 x 713 km, 98.6° (Epoch: 31 March)

Date Brightness Start Highest point End Pass type
(mag) Time Alt. Az. Time Alt. Az. Time Alt. Az.
02 Apr ? 02:34:17 10° E 02:35:57 12° ENE 02:37:36 10° NE visible
02 Apr ? 04:08:15 10° SSE 04:13:01 88° WSW 04:17:48 10° NNW visible
03 Apr ? 03:15:39 10° SE 03:19:42 29° ENE 03:23:46 10° N visible
03 Apr ? 18:30:58 10° NNW 18:34:01 17° WNW 18:37:05 10° WSW visible
04 Apr ? 03:59:00 10° SSE 04:03:44 75° ENE 04:08:30 10° N visible
05 Apr ? 03:06:45 10° ESE 03:10:29 24° ENE 03:14:15 10° NNE visible
05 Apr ? 18:21:20 10° NNW 18:24:51 21° WNW 18:28:22 10° WSW visible
06 Apr ? 03:49:48 10° SSE 03:54:28 60° ENE 03:59:10 10° N visible
07 Apr ? 02:57:57 10° ESE 03:01:18 20° ENE 03:04:40 10° NNE visible
07 Apr ? 18:11:46 10° N 18:15:39 25° WNW 18:19:33 10° WSW visible
08 Apr ? 03:40:39 10° SE 03:45:13 48° ENE 03:49:48 10° N visible
08 Apr ? 18:58:51 10° NW 18:59:22 10° WNW 18:59:53 10° WNW visible
09 Apr ? 02:49:15 10° E 02:52:08 16° ENE 02:55:00 10° NNE visible
10 Apr ? 03:31:35 10° SE 03:35:58 39° ENE 03:40:25 10° N visible
10 Apr ? 18:48:12 10° NNW 18:50:14 13° WNW 18:52:15 10° W visible
11 Apr ? 02:40:45 10° E 02:42:58 13° ENE 02:45:10 10° NNE visible
